#timestamp,LO_Frequency,Hit,StdDev 
1516197615.3,286046999.4,N
1516197635.1,286046998.1,N
1516197655.9,286046998.9,N
1516197675.7,286046998.0,N
1516197695.5,286046995.9,N
1516197715.4,286046991.8,N
1516197735.2,286046991.8,N
1516197755.1,286046993.2,N
1516197756.0,286046993.2,N
1516197775.8,286046991.1,N
1516197795.6,286046988.5,Y
1516197815.5,286046995.8,P
1516197835.3,286046995.9,P
1516197855.8,286046995.6,P
1516197875.7,286046996.7,Y
1516197895.5,286047004.9,P
1516197915.3,286047003.0,N
1516197935.2,286047001.3,N
1516197955.9,286047002.4,N
1516197975.7,286047000.1,N
1516197995.6,286047003.7,N
1516198015.4,286047007.2,N
1516198035.2,286047005.3,N
1516198055.1,286047003.5,N
1516198056.0,286047003.5,N
1516198075.8,286047002.3,N
1516198095.7,286047001.6,N
1516198115.5,286047000.3,N
1516198135.4,286047002.7,N
1516198155.2,286047003.8,N
1516198175.0,286047005.4,N
1516198175.9,286047005.4,N
1516198195.8,286047003.3,N
1516198215.6,286047001.7,N
1516198235.5,286047004.9,N
1516198255.3,286047007.5,Y
1516198275.1,286047002.7,P
1516198295.9,286047000.7,P
1516198315.7,286047000.7,N
1516198335.6,286046996.7,Y
1516198355.4,286046996.1,P
1516198375.2,286046997.5,N
1516198395.1,286046998.5,N
1516198396.0,286046998.5,N
1516198415.8,286047001.0,N
1516198435.6,286047000.5,N
1516198455.5,286047002.3,N
1516198475.3,286047001.4,N
1516198495.2,286047001.0,N
1516198515.9,286046999.6,N
1516198535.7,286046997.4,N
1516198555.6,286046995.1,N
1516198575.4,286046996.1,N
1516198595.2,286046992.0,Y
1516198645.1,286046991.7,E
1516198655.0,286047001.0,N
1516198655.9,286047001.0,P
1516198675.8,286047010.4,P
1516198695.6,286047009.7,N
1516198715.5,286047011.0,N
1516198735.3,286047015.4,Y
1516198755.1,286047008.7,P
1516198775.9,286047010.6,P
1516198795.7,286047010.4,P
1516198815.5,286047011.9,Y
1516198835.4,286047006.6,P
1516198855.2,286047003.2,N
1516198875.1,286047001.7,N
1516198876.0,286047001.7,N
1516198895.8,286047000.3,N
1516198915.6,286046999.4,N
1516198935.5,286046999.1,N
1516198955.3,286046994.9,N
1516198975.2,286047000.9,N
1516198995.9,286047005.8,N
1516199015.7,286047003.2,N
1516199035.6,286047000.4,N
1516199055.4,286046999.2,N
1516199075.2,286046997.6,N
1516199095.1,286046997.5,N
1516199096.0,286046997.5,N
1516199115.8,286046997.0,N
1516199135.7,286047000.6,N
1516199155.5,286047001.2,N
1516199175.3,286046999.9,N
1516199195.2,286046999.0,N
1516199215.0,286047000.1,N
1516199215.9,286047000.1,N
1516199235.7,286046997.0,N
1516199255.6,286046995.3,N
1516199275.4,286046993.8,N
1516199295.3,286046992.4,N
1516199315.1,286046992.3,N
1516199316.0,286046992.3,N
1516199335.8,286046990.5,N
1516199355.7,286046990.4,N
1516199375.5,286046989.4,N
1516199395.3,286046991.4,N
1516199415.2,286046988.5,N
1516199435.0,286046990.5,N
1516199435.9,286046990.5,N
1516199455.8,286046990.5,N
1516199475.6,286046992.9,N
1516199495.4,286046992.8,N
1516199515.3,286046990.5,N
1516199535.1,286046992.3,N
1516199555.9,286046997.7,N
1516199575.7,286046999.2,N
1516199595.5,286047001.4,N
1516199615.4,286047005.5,N
1516199635.2,286047001.9,N
1516199655.0,286047000.9,N
1516199655.9,286047000.9,N
1516199675.8,286047001.0,N
1516199695.6,286046997.0,N
1516199715.5,286046999.6,N
1516199735.3,286047000.9,N
1516199755.1,286047001.1,N
1516199775.9,286046997.7,N
1516199795.7,286046995.2,N
1516199815.5,286046996.3,N
1516199835.4,286046995.1,N
1516199855.2,286046993.7,N
1516199875.1,286046993.3,N
1516199876.0,286046993.3,N
1516199895.8,286046992.0,N
1516199915.6,286046992.9,N
1516199935.5,286046993.2,N
1516199955.3,286046992.4,N
1516199975.2,286046990.5,N
1516199995.9,286046991.6,N
1516200015.7,286046988.9,N
1516200035.6,286046990.8,N
1516200055.4,286046994.6,N
1516200075.2,286046994.1,N
1516200095.1,286046993.7,N
1516200096.0,286046993.7,N
1516200115.8,286046994.1,N
1516200135.7,286046997.9,N
1516200155.5,286046999.5,N
1516200175.3,286046997.7,N
1516200195.2,286046995.4,N
1516200215.0,286046996.2,N
1516200215.9,286046996.2,N
1516200235.7,286046993.9,N
1516200255.6,286046994.3,N
1516200275.4,286046990.3,Y
1516200295.3,286046996.0,P
1516200315.1,286046996.3,P
1516200335.8,286046996.4,P
1516200355.7,286046998.2,N
1516200375.5,286047001.1,N
1516200395.4,286047001.0,N
1516200415.2,286046997.1,N
1516200435.0,286046997.6,N
1516200435.9,286046997.6,N
1516200455.8,286046995.9,N
1516200475.6,286046996.1,N
1516200495.4,286046997.8,N
1516200515.3,286046996.1,N
1516200535.1,286046995.5,N
1516200555.9,286046996.4,N
1516200575.7,286046993.8,Y
1516200595.5,286046997.1,P
1516200615.4,286046997.7,P
1516200635.2,286046996.9,P
1516200655.0,286046999.6,N
1516200656.0,286046999.6,N
1516200675.8,286046996.7,N
1516200695.6,286046997.1,N
1516200715.5,286046997.8,N
1516200735.3,286046994.9,Y
1516200755.1,286046998.9,P
1516200775.9,286047000.8,N
1516200795.7,286046998.5,N
1516200815.6,286046998.1,N
1516200835.4,286046998.7,N
1516200855.2,286046999.1,N
1516200875.1,286046996.6,Y
1516200876.0,286046996.6,P
1516200895.8,286046996.6,P
1516200915.7,286046996.9,N
1516200935.5,286047001.2,N
1516200955.3,286046998.6,N
1516200975.2,286047001.4,N
1516200995.9,286047002.9,N
1516201015.7,286047005.3,N
1516201035.6,286047005.6,N
1516201055.4,286047003.8,N
1516201075.3,286047002.3,N
1516201095.1,286047001.3,N
1516201096.0,286047001.3,N
1516201115.8,286047005.0,N
1516201135.7,286047006.7,N
1516201155.5,286047006.4,N
1516201175.4,286047006.8,N
1516201195.2,286047003.1,N
